リニア彗星

C/2011 O1 ( LINEAR )

English version
Home page
Updated on March 24, 2012

---------------------------------------------------------------------

・ プロフィール

発見日 2011年7月31日
発見光度 17.6等
発見者 Lincoln Laboratory Near-Earth Asteroid Research project

・ 写真集

・ 軌道要素

Epoch 2012 Aug. 21.0 TT = JDT 2456160.5
T 2012 Aug. 18.47042 TT                                 MPC
q   3.8906598            (2000.0)            P               Q
z  +0.0008285      Peri.  232.38232     +0.18297329     +0.14503685
 +/-0.0000091      Node    89.81672     -0.25418865     +0.96240623
e   0.9967767      Incl.   76.49893     -0.94968885     -0.22964876
From 78 observations 2011 July 31-2012 Mar. 19, mean residual 0".4.

・ 星図

・ 光度変化

        m1 = 6.5 + 5 logΔ + 10.0 log r

---------------------------------------------------------------------

軌道要素はM.P.E.C. 2012-F59に掲載されたものです。
星図はステラナビゲータ Ver.8 (アストロアーツ) で作成したものです。
光度グラフはComet for Windowsで作成したものです。

---------------------------------------------------------------------

Copyright(C) Seiichi Yoshida (comet@aerith.net). All rights reserved.